User: anonymous
Location: Unspecified
(0.0000°N, 0.0000°E)
Time: 15:57:24
(UTC+02:00)
Language:

CZ-4 DEB - Orbit

View from above orbital plane
View from above orbital plane
View from above satellite
View from above satellite

Ground track
Ground track

The orbit data is extracted from the following two-line orbital elements,

1 29508U 06046D   14112.18998560  .00027376  00000-0  16681-2 0  5541
2 29508 097.7062 118.7045 0008793 123.4911 008.3837 15.10310258408862
Epoch (UTC): 22 April 2014 04:33:34
Eccentricity: 0.0008793
inclination: 97.7062°
perigee height: 529 km
apogee height: 541 km
right ascension of ascending node: 118.7045°
argument of perigee: 123.4911°
revolutions per day: 15.10310258
mean anomaly at epoch: 8.3837°
orbit number at epoch: 40886

The dashed part of the orbit path shows where the satellite is in the earth's shadow,  

DLR